Location: Cuzcurrita-R�o Tir�n
(42.5415°N, 2.9642°W)
Time: 20:45:48
(UTC+00:00)

SJ 16-02 - Pass Details

Date: 17 January 2021
Orbit: 606 x 616 km, 75.0° (Epoch: 03 March)

Event Time Altitude Azimuth Distance (km) Brightness Sun altitude
Rises 18:03:15 0° 150° (SSE) 2,866 4.7 -10.4°
Reaches altitude 10° 18:06:29 10° 125° (SE) 1,966 3.6 -11.0°
Enters shadow 18:08:37 14° 95° (E) 1,737 3.1 -11.4°
